Regional Weather Roundup
Issued by NWS Wakefield, VA

Home | Current Version | Previous Version | Text Only | Print | Product List | Glossary On
Versions: 1 2 3 4 5 6 7 8 9 10 11 12 13 14 15 16 17 18 19 20 21 22 23 24 25 26 27
000
ASUS41 KAKQ 231215
RWRAKQ

REGIONAL WEATHER ROUNDUP
NATIONAL WEATHER SERVICE WAKEFIELD VA
800 AM EDT WED AUG 23 2017

Note: "fair" indicates few or no clouds below 12,000 feet with no
significant weather and/or obstructions to visibility. * = Denotes
station may not report precipitation (e.g., rain,snow,etc.),
thunder or fog.

VAZ042-051-052>054-056-231300-
NORTHERN VIRGINIA

CITY           SKY/WX    TMP DP  RH WIND       PRES   REMARKS
WASH NATIONAL  MOSUNNY   78  69  73 NW8       29.85R
DULLES         PTSUNNY   76  69  79 NW8       29.87R
FORT BELVOIR   MOSUNNY   77  68  74 NW3       29.85R
QUANTICO       CLOUDY    77  73  87 NW6       29.87R
FREDERICKSBRG* PTSUNNY   77  76  96 CALM      29.85R
STAFFORD*      CLOUDY    74  74 100 CALM      29.90R
WARRENTON      CLOUDY    75  69  81 CALM      29.87R
CULPEPER*      CLOUDY    73  71  94 CALM      29.88R
MANASSAS*      MOSUNNY   78  70  76 NW8       29.87R
LEESBURG*      PTSUNNY   75  72  88 N3        29.89R
WINCHESTER     CLOUDY    72  64  78 NW6       29.90R
FRONT ROYAL*   CLOUDY    70  68  94 CALM      29.89R
LURAY*         CLOUDY    72  70  94 CALM      29.91R
$$

VAZ048-049-060>072-079>083-231300-
CENTRAL AND SOUTH CENTRAL VIRGINIA

CITY           SKY/WX    TMP DP  RH WIND       PRES   REMARKS
RICHMOND       MOSUNNY   78  72  81 SW6       29.85R
CHESTERFIELD*  FAIR      76  72  87 SW5       29.86S
PETERSBURG*    MOSUNNY   74  71  90 SW3       29.86S
HANOVER        SUNNY     78  70  76 NW3       29.87R
TAPPAHANNOCK*  SUNNY     78  77  95 CALM      29.86S
QUINTON*       FAIR     N/A N/A N/A CALM      29.84S
CHARLOTTSVILLE CLOUDY    77  70  79 CALM      29.87R
GORDONSVILLE*  CLOUDY    74  72  93 CALM      29.87R
ORANGE*        CLOUDY    73  70  88 CALM      29.87R
LOUISA*        MOSUNNY   77  70  78 CALM      29.87R
BUMPASS*       FAIR      76  74  96 CALM      29.86R
FARMVILLE*     MOSUNNY   76  73  92 CALM      29.86S
CREWE*         FAIR      76  71  87 W3        29.87S
FORT PICKETT*  FAIR     N/A N/A N/A SW8       29.87S
CHASE CITY*    FAIR      74  74  99 CALM      29.88S
CLARKSVILLE*   FAIR      73  73 100 SW3       29.88S
SOUTH HILL*    SUNNY     73  73 100 S3        29.93S
LAWRENCEVILLE* FAIR      75  73  93 SW3       29.87S
EMPORIA*       SUNNY     73  72  94 SW3       29.88S
$$

VAZ088>098-231300-
SOUTHEAST VIRGINIA

CITY           SKY/WX    TMP DP  RH WIND       PRES   REMARKS
NORFOLK        MOSUNNY   80  75  84 SW13      29.86S
VIRGINIA BEACH MOSUNNY   78  73  84 SW8       29.85S
NORFOLK NAVAL  MOSUNNY   80  74  81 SW6       29.87R
WEST POINT*    SUNNY     78  73  85 W6        29.86R
SALUDA*        FAIR      78  75  90 W3        29.85R
NEWPORT NEWS   SUNNY     78  73  84 SW9       29.85S
LANGLEY AFB    MOSUNNY   79  74  86 SW10      29.85S
FORT EUSTIS    NOT AVBL
WILLIAMSBURG*  SUNNY     79  73  83 CALM      29.87R
HR EXEC AP*    FAIR      75  72  88 SW7       29.84S
FRANKLIN*      MOSUNNY   76  73  90 SW6       29.87S
US460-WAKEFLD  SUNNY     76  74  93 SW5       29.86R
$$

VAZ020-022-025-037-045-231300-
WEST CENTRAL AND SOUTHWEST VIRGINIA

CITY           SKY/WX    TMP DP  RH WIND       PRES   REMARKS
STAUNTON*      CLOUDY    71  67  86 N3        29.93R
WAYNESBORO*    CLOUDY    74  67  77 W5        29.92R
HOT SPRINGS VA FOG       63  63 100 CALM      30.04R VSB 1
LYNCHBURG      CLOUDY    75  70  84 S3        29.90R
DANVILLE       SUNNY     72  72 100 SW3       29.90S
SOUTH BOSTON*  FAIR      75  73  95 SW5       29.88S
MARTINSVILLE   SUNNY     70  69  97 CALM      29.95R FOG
ROANOKE        LGT RAIN  75  68  78 W6        29.93S
BLACKSBURG     CLOUDY    69  68  97 CALM      30.00S
DUBLIN*        LGT RAIN  71  68  91 W3        30.00R
MARION*        CLOUDY    70  54  56 SW5       30.04R
HILLSVILLE*    CLOUDY    71  63  75 CALM      30.01R
RICHLANDS*     RAIN      66  62  86 NW5       30.03S
WISE*          CLOUDY    66  66 100 CALM      30.05S
ABINGDON*      CLOUDY    73  69  87 CALM      30.01R
$$

MDZ021>025-VAZ099-100-231300-
SOUTHERN MARYLAND AND THE DELMARVA PENINSULA

CITY           SKY/WX    TMP DP  RH WIND       PRES   REMARKS
PATUXENT RIVER MOSUNNY   78  71  79 W8        29.84R
BAY BRIDGE APT PTSUNNY   77  70  78 NW5       29.84R
LEONARDTOWN    SUNNY     77  70  78 W3        29.86S
DOVER          PTSUNNY   77  72  83 W8        29.81R
GEORGETOWN     MOSUNNY   80  73  79 NW5       29.83R
EASTON         NOT AVBL
CAMBRIDGE      PTSUNNY   79  72  78 VRB3      29.84R
SALISBURY      SUNNY     79  77  94 W5        29.82S
OCEAN CITY     SUNNY     80  77  90 W6        29.83R
WALLOPS ISLAND MOSUNNY   81  76  84 W6        29.83S
ACCOMACK*      PTSUNNY   81  76  84 W8        29.85R
$$

NCZ012>017-030>032-231300-
NORTH CENTRAL AND EASTERN NORTH CAROLINA

CITY           SKY/WX    TMP DP  RH WIND       PRES   REMARKS
ROANOKE RAPIDS FAIR      75  73  94 SW7       29.88S
RALEIGH        MOSUNNY   78  74  87 SW8       29.89S
ELIZABETH CITY SUNNY     79  77  94 SW9       29.88S
AHOSKIE*         N/A     75  74  98 S3        29.88S
EDENTON*       PTSUNNY   80  75  86 SW7       29.89S
CURRITUCK*     SUNNY     78  74  88 SW8       29.88S
KILL DEVIL HLS SUNNY     79  73  83 SW8       29.88F
MANTEO         SUNNY     79  74  86 W14       29.89F
CAPE HATTERAS  SUNNY     82  78  88 SW8       29.91F
TARBORO*       NOT AVBL
GOLDSBORO      PTSUNNY   77  77 100 SW9       29.89S
WASHINGTON     MOSUNNY   77  74  90 SW7       29.90S
GREENVILLE     MOSUNNY   77  75  94 SW8       29.91S
NEW BERN       MOSUNNY   77  75  93 SW7       29.92R
WILMINGTON     CLOUDY    78  74  87 SW8       29.92F
$$

VAZ048-231300-
ELSEWHERE

CITY           SKY/WX    TMP DP  RH WIND       PRES   REMARKS
HARRISBURG PA  MOSUNNY   74  64  71 NW8       29.85R
BALTIMORE      PTSUNNY   75  70  84 NW7       29.84R
ANNAPOLIS      CLOUDY    77  73  87 W6        29.84R
ANDREWS AFB    MOSUNNY   77  67  71 NW8       29.85R
PHILADELPHIA   CLOUDY    76  71  85 W5        29.83R
HENDERSON NC   SUNNY     72  69  91 SW7       29.89S
GREENSBORO     MOSUNNY   74  73  97 W5        29.91S
ROCKY MOUNT    SUNNY     77  76  96 SW8       29.88S
$$

VAZ100-231300-
MARINE

STATION/POSITION TIME  TEMP    WIND        PRES    WAVE   SWELL
                       AIR SEA DIR/SP/G            HT/PER HT/PER
                 (UTC) (F)     (DEG/KT/KT) (MB)    (FT/S) (FT/S)
BRANDYWINE LGT   1142   79     320/  7/  8 1010.0R
CAPE MAY NJ      1148   81 78  320/  5/  6 1009.0R
LEWES DE         1148   78 77  310/  7/  8 1009.4R
15NM E FENWICK I 1150   78 78  230/ 10/ 10 1009.9R   4/ 6   3/ 6
OCEAN-CITY-INLET 1148   78 78  260/  6/  7 1010.1R
WACHAPREAGUE VA  1148   80 82  270/  5/  9 1010.4R
THOMAS POINT MD  1200   76 81  310/  9/ 11   N/A
GOOSES REEF MD   1200   79 81  310/  8/ 10 1011.2    1/ 2
COVE POINT MD    1148   79     320/  8/ 11 1011.1R
SOLOMONS ISLAND  1142   79 82  290/  4/  7   N/A
BISHOPS HEAD MD  1148   80 81  290/ 10/ 10 1010.4R
PINEY POINT MD   1148          350/  9/ 10   N/A
POTOMAC MD       1200   80 83  280/  8/ 10 1009.7    1/ 3
CAMBRIDGE MD     1148   81 82              1011.1R
LEWISETTA VA     1148   79 82  300/  5/  6 1010.4R
RAPPAHANNOCK LGT 1148          250/ 10/ 12 1011.3R
STINGRAY PT      1200   80 82  280/ 12/ 14 1010.8    1/ 3
YORK RVR RNG VA  1148   79     260/ 12/ 14 1011.0R
YORKTOWN VA      1148   78 83  250/  5/  8 1010.4R
JAMESTOWN VA     1200      85  260/  4/  8   N/A     0
DOMINION TERM VA 1148   79     250/  9/ 11 1011.2R
KIPTOPEKE VA     1148      81  250/ 11/ 13   N/A
CHES BAY BRIDGE  1148   79 80  250/ 15/ 18 1010.5S
CAPE HENRY VA    1148   78     210/ 10/ 14   N/A
WILLOUBY STN VA  1142   78     230/ 12/ 13 1010.9R
S CRANEY ISL VA  1148   78     220/  8/ 11 1010.8R
CAPE HENRY BUOY  1200      78                N/A     3/10
1ST LANDING BUOY 1200   80 80              1010.6    2/ 3
64NM E OF VA BCH 1150   79 78  230/ 14/ 17 1011.6F   5/ 9   3/ 9
DUCK PIER NC     1148   80 67  220/ 16/ 18 1011.4F
44100 DUCK FRF   1105      80                N/A     3/ 9
44056 DUCK FRF   1130      69                N/A     3/10
OREGON INLET NC  1142   81 83  230/ 15/ 19 1011.9F
HATTERAS NC      1148   81 83  240/  7/ 10 1012.6F
DIAMOND SHLS NC  1150   83 85  250/ 16/ 17 1012.6F   4/ 5   2/ 9
CAPE LOOKOUT NC  1200   81     250/ 12/ 15 1012.9R
$$




USA.gov is the U.S. government's official web portal to all federal, state and local government web resources and services.